GW3271 Weather Reports


time (UTC)temp
C
wind
direction
speed
KPH
gust
KPH
rain 1hr
cm
rain 24hr
cm
rain mn
cm
humidity
%
barometer
mb
20260906171535 30 0 0.0 0.0 0.00 0.56 0.56 68 1015.1
20260906170033 30 0 0.0 0.0 0.00 0.56 0.56 70 1015.5
20260906164532 29 0 0.0 0.0 0.03 0.56 0.56 78 1015.5
20260906163034 27 0 0.0 0.0 0.23 0.56 0.56 87 1015.6
20260906161534 26 0 0.0 0.0 0.53 0.56 0.56 92 1015.7
20260906160032 25 0 0.0 0.0 0.56 0.56 0.56 89 1015.7
20260906154532 25 0 0.0 1.6 0.53 0.53 0.53 88 1015.6
20260906153033 27 0 0.0 1.6 0.30 0.30 0.30 87 1015.6
20260906151532 27 53 0.0 3.2 0.03 0.03 0.03 82 1015.4
20260906150041 27 79 1.6 4.8 0.00 0.00 0.00 80 1015.2
20260906144535 27 0 0.0 4.8 0.00 0.00 0.00 80 1015.0
20260906143032 27 85 0.0 3.2 0.00 0.00 0.00 81 1015.0
20260906141531 27 65 0.0 4.8 0.00 0.00 0.00 82 1014.9
20260906140033 27 0 0.0 0.0 0.00 0.00 0.00 81 1014.7
20260906134543 27 0 0.0 4.8 0.00 0.00 0.00 82 1014.7
20260906133049 27 91 1.6 6.4 0.00 0.00 0.00 82 1014.5
20260906131536 27 0 0.0 0.0 0.00 0.00 0.00 81 1014.1
20260906130038 27 0 0.0 3.2 0.00 0.00 0.00 82 1013.9
20260906124532 26 84 0.0 1.6 0.00 0.00 0.00 82 1013.8
20260906123036 26 0 0.0 0.0 0.00 0.00 0.00 84 1013.7
20260906121536 26 0 0.0 0.0 0.00 0.00 0.00 83 1013.4
20260906120036 26 0 0.0 0.0 0.00 0.00 0.00 83 1013.0
20260906114536 26 0 0.0 0.0 0.00 0.00 0.00 82 1013.0
20260906113035 26 0 0.0 0.0 0.00 0.00 0.00 82 1012.6
20260906111538 26 0 0.0 0.0 0.00 0.00 0.00 82 1012.3
20260906110034 26 0 0.0 0.0 0.00 0.00 0.00 81 1012.1
20260906104538 27 0 0.0 4.8 0.00 0.00 0.00 80 1012.3
20260906103036 27 0 0.0 4.8 0.00 0.00 0.00 80 1012.2
20260906101533 27 211 0.0 1.6 0.00 0.00 0.00 79 1012.1
20260906100037 27 0 0.0 0.0 0.00 0.00 0.00 79 1012.1
20260906094537 27 0 0.0 1.6 0.00 0.00 0.00 79 1012.2
20260906093032 27 0 0.0 4.8 0.00 0.00 0.00 78 1012.3
20260906091536 27 237 0.0 3.2 0.00 0.00 0.00 78 1012.2
20260906090038 27 0 0.0 1.6 0.00 0.00 0.00 77 1012.2
20260906084536 27 0 0.0 1.6 0.00 0.00 0.00 77 1012.2
20260906083032 27 0 0.0 3.2 0.00 0.00 0.00 76 1012.3
20260906081534 27 0 0.0 6.4 0.00 0.00 0.00 76 1012.3
20260906080039 27 0 0.0 4.8 0.00 0.00 0.00 75 1012.5
20260906074536 28 0 1.6 4.8 0.00 0.00 0.00 75 1012.7
20260906073035 28 229 0.0 4.8 0.00 0.00 0.00 74 1012.8
20260906071533 28 193 1.6 11.3 0.00 0.00 0.00 74 1012.9
20260906070031 28 270 1.6 8.0 0.00 0.00 0.00 73 1013.1
20260906064532 28 235 1.6 11.3 0.00 0.00 0.00 72 1013.2
20260906063035 28 221 3.2 14.5 0.00 0.00 0.00 71 1013.4
20260906061531 29 226 3.2 9.7 0.00 0.00 0.00 71 1013.5
20260906060033 29 269 1.6 8.0 0.00 0.00 0.00 71 1013.6
20260906054533 29 264 1.6 6.4 0.00 0.00 0.00 70 1013.6
20260906053037 29 257 1.6 9.7 0.00 0.00 0.00 70 1013.3
20260906051534 29 239 0.0 8.0 0.00 0.00 0.00 69 1013.5
20260906050035 30 264 1.6 11.3 0.00 0.00 0.00 69 1013.6
20260906044531 30 226 3.2 8.0 0.00 0.00 0.00 68 1013.5
20260906043033 30 278 1.6 6.4 0.00 0.00 0.00 67 1013.5
20260906041533 30 20 0.0 9.7 0.00 0.00 0.00 67 1013.3
20260906040039 30 0 1.6 8.0 0.00 0.00 0.00 66 1013.2
20260906034541 30 10 1.6 8.0 0.00 0.00 0.00 65 1013.4
20260906033032 31 80 3.2 8.0 0.00 0.00 0.00 63 1013.5
20260906031533 31 250 1.6 9.7 0.00 0.00 0.00 60 1013.1
20260906030039 31 82 8.0 17.7 0.00 0.00 0.00 59 1012.9
20260906024533 31 60 6.4 20.9 0.00 0.00 0.00 58 1012.5
20260906023032 32 83 6.4 17.7 0.00 0.00 0.00 57 1012.1
20260906021538 32 120 4.8 17.7 0.00 0.00 0.00 56 1011.7
20260906020043 32 42 4.8 19.3 0.00 0.00 0.00 55 1011.3
20260906014544 32 39 9.7 17.7 0.00 0.00 0.00 55 1011.3
20260906013036 32 68 3.2 16.1 0.00 0.00 0.00 53 1011.3
20260906011535 32 88 3.2 16.1 0.00 0.00 0.00 52 1011.2
20260906010037 33 68 4.8 19.3 0.00 0.00 0.00 52 1011.1
20260906004532 34 70 8.0 17.7 0.00 0.00 0.00 49 1010.9
20260906003035 35 96 6.4 20.9 0.00 0.00 0.00 45 1010.8
20260906001535 35 56 4.8 12.9 0.00 0.00 0.00 44 1010.7
20260906000037 35 92 3.2 16.1 0.00 0.00 0.00 43 1010.6
20260905234535 35 96 6.4 14.5 0.00 0.00 0.00 41 1010.6
20260905233039 36 56 4.8 16.1 0.00 0.00 0.00 41 1010.4
20260905231541 36 68 4.8 9.7 0.00 0.00 0.00 40 1010.4
20260905230041 36 102 4.8 11.3 0.00 0.00 0.00 40 1010.6
20260905224533 37 37 1.6 6.4 0.00 0.00 0.00 38 1010.4
20260905223034 37 208 1.6 6.4 0.00 0.00 0.00 38 1010.4
20260905221537 37 68 3.2 11.3 0.00 0.00 0.00 37 1010.6
20260905220035 37 209 1.6 6.4 0.00 0.00 0.00 36 1010.6
20260905214535 37 107 3.2 16.1 0.00 0.00 0.00 37 1010.7
20260905213036 37 252 1.6 9.7 0.00 0.00 0.00 37 1010.7
20260905211538 37 98 1.6 8.0 0.00 0.00 0.00 36 1010.9
20260905210031 37 0 3.2 9.7 0.00 0.00 0.00 37 1011.1
20260905204534 37 0 0.0 6.4 0.00 0.00 0.00 38 1011.3
20260905203031 37 333 3.2 9.7 0.00 0.00 0.00 37 1011.7
20260905201535 37 346 1.6 9.7 0.00 0.00 0.00 38 1012.0
20260905200036 37 136 0.0 4.8 0.00 0.00 0.00 39 1012.1
20260905194533 36 342 1.6 8.0 0.00 0.00 0.00 41 1012.4
20260905193038 37 269 1.6 9.7 0.00 0.00 0.00 40 1012.7
20260905191533 36 310 4.8 9.7 0.00 0.00 0.00 43 1013.0
20260905190033 36 186 1.6 6.4 0.00 0.00 0.00 44 1013.3
20260905184536 35 259 3.2 9.7 0.00 0.00 0.00 45 1013.5
20260905183033 35 278 1.6 6.4 0.00 0.00 0.00 46 1013.6
20260905181539 35 262 0.0 9.7 0.00 0.00 0.00 47 1013.9
20260905180035 35 346 1.6 6.4 0.00 0.00 0.00 47 1014.3
20260905174535 34 89 1.6 6.4 0.00 0.00 0.00 52 1014.5
20260905173034 33 83 1.6 9.7 0.00 0.00 0.00 52 1014.7